GFSNW_sfc_30mbdewp_000.txt.gz
Dewpoint
51 50 50 49 50 49 50 39 29 44 47 30 33 26 27 32 32 34 33 33 32 31 32 31 31 31 31 34 34 31 33 30 23 24 29 33 32 29 28 22 22 27 26 24
51 50 50 49 50 50 45 38 38 42 40 26 29 32 32 32 31 33 31 32 34 34 32 30 32 33 36 36 34 33 32 28 20 15 24 30 30 32 31 29 28 26 25 23
51 51 50 49 50 50 43 36 34 37 39 37 31 30 30 31 34 33 35 33 33 33 32 34 32 33 35 37 36 36 33 30 25 19 22 27 29 31 32 31 29 27 27 27
51 50 49 49 49 51 44 38 37 39 31 33 34 34 31 32 29 32 34 33 33 31 30 32 34 35 34 34 37 36 35 32 31 30 31 31 31 32 32 32 31 29 28 29
51 50 49 49 49 50 41 37 37 40 38 36 31 31 31 34 32 31 32 32 34 34 31 32 31 35 34 32 35 35 35 29 33 30 33 32 31 32 32 33 33 33 32 32
51 50 49 49 49 49 43 45 42 37 36 31 29 31 31 31 33 34 34 34 32 30 34 36 37 37 37 36 34 34 34 33 31 21 29 30 20 23 29 29 29 28 25 26
51 50 50 50 49 50 46 46 37 31 33 29 32 34 33 33 33 32 34 34 32 34 40 37 36 33 30 33 35 37 34 33 31 29 30 23 23 29 28 27 27 27 28 29
52 51 51 50 49 51 49 48 39 33 33 36 36 33 34 34 34 35 34 39 39 38 35 33 29 26 21 29 37 36 35 33 29 28 27 27 28 26 25 25 26 28 30 34
52 52 52 50 49 51 51 49 43 36 32 34 35 34 34 32 32 33 39 42 41 38 33 31 27 22 26 23 26 35 34 32 31 28 25 23 24 26 29 34 26 34 35 34
52 52 52 51 49 50 52 51 47 39 31 38 38 33 34 35 34 33 35 39 38 37 34 32 30 29 30 25 23 23 29 29 30 29 27 27 29 29 32 27 27 33 34 35
51 51 52 52 50 49 51 51 51 43 37 40 44 40 38 38 36 32 36 36 36 36 34 33 31 29 29 30 28 25 23 22 23 26 24 22 30 32 31 32 35 35 36 36
51 51 51 52 50 49 49 49 50 48 39 39 49 49 46 40 38 37 37 35 35 36 34 33 31 31 30 29 28 30 27 27 26 30 28 29 31 35 34 35 37 37 39 38
51 51 51 52 51 50 50 49 49 44 40 40 42 42 45 49 46 44 38 38 39 38 38 34 33 32 33 32 31 33 35 37 34 32 33 35 37 37 39 41 40 38 38 37
51 51 51 52 51 49 48 47 47 44 41 37 38 43 42 45 48 46 45 42 43 41 39 37 35 35 37 35 36 36 37 36 36 35 36 37 37 40 40 39 39 38 37 34
50 50 50 51 51 49 48 49 50 47 42 38 38 43 43 44 45 46 46 45 44 42 41 40 38 38 38 37 37 35 38 37 35 32 36 40 39 41 41 38 36 35 31 31
49 49 49 50 51 50 49 45 47 49 47 41 36 41 41 42 43 44 44 45 44 43 42 40 40 40 37 35 33 35 36 37 38 38 40 39 40 37 35 33 30 28 30 28
49 49 49 50 50 50 47 44 44 49 46 41 38 37 38 39 40 41 41 42 42 42 42 40 38 38 40 37 33 36 37 39 38 37 39 38 35 32 30 29 28 27 26 27
49 49 49 49 49 48 47 47 49 49 44 42 37 37 36 39 37 38 38 38 39 41 41 39 38 38 39 35 36 36 36 36 36 37 38 36 33 31 29 24 23 22 22 25
48 48 48 47 45 44 44 47 48 46 44 40 36 34 34 39 37 36 36 36 35 37 35 36 37 35 33 36 32 31 32 34 34 34 33 30 25 27 26 25 24 21 21 26
47 45 42 39 41 46 46 43 42 42 39 38 35 37 35 39 36 36 36 34 33 31 33 34 33 33 34 31 34 35 34 33 32 30 24 26 26 26 26 25 23 23 24 27
41 39 37 42 46 41 39 36 35 35 34 34 34 35 36 38 35 34 34 32 31 26 25 29 27 26 28 29 28 28 27 27 27 27 26 26 27 27 28 27 24 24 25 26
40 42 43 41 39 36 34 32 32 32 31 32 32 34 36 35 38 34 31 29 28 23 27 27 24 26 28 29 29 28 28 26 23 23 22 24 26 27 29 28 28 27 27 26
38 38 37 35 33 30 29 26 28 29 31 32 33 32 33 34 34 31 29 25 23 26 25 22 23 24 22 22 25 26 27 24 22 22 23 25 25 26 25 25 26 26 25 26
30 32 30 29 27 29 28 27 26 29 33 33 33 31 30 29 29 27 22 22 23 22 19 17 21 20 20 23 25 25 22 22 23 23 25 25 25 25 25 25 25 25 24 25
27 24 25 27 27 30 32 33 33 33 34 33 31 29 28 25 24 23 21 20 18 17 16 19 20 22 24 24 21 21 22 23 24 25 25 25 25 25 25 26 26 25 24 25
28 26 23 27 28 28 30 32 32 34 33 30 26 24 24 24 20 20 17 16 12 14 19 19 22 24 25 24 22 23 24 25 25 26 26 26 25 26 26 26 25 25 25 25
22 24 28 26 25 25 28 31 32 33 29 24 22 17 16 18 18 16 18 15 15 17 17 20 23 24 22 22 24 24 24 25 25 26 26 26 26 26 25 26 27 27 27 26

GFSNW_sfc_30mbdewp_003.txt.gz
Dewpoint
51 50 50 49 50 50 44 35 35 44 46 29 32 26 27 32 33 34 33 33 32 31 31 31 31 31 31 35 34 32 33 30 20 24 30 33 31 28 27 22 21 27 26 23
51 51 50 49 50 50 43 37 38 41 39 26 30 32 32 32 32 33 31 32 33 33 31 29 32 33 36 36 34 33 32 28 16 15 26 29 30 31 29 28 29 25 25 23
51 50 50 49 49 50 41 34 34 36 37 36 31 30 31 32 33 33 34 33 33 32 31 34 33 33 35 36 36 35 33 30 24 13 17 26 27 30 31 31 28 26 26 26
51 50 49 49 49 50 41 38 37 37 29 32 32 32 31 31 30 32 33 32 31 31 30 32 33 34 33 34 36 37 35 31 30 30 30 31 30 30 31 30 31 29 28 28
50 50 49 49 49 49 40 36 36 38 36 33 30 30 32 31 32 30 31 31 33 32 29 28 28 33 33 30 34 34 35 28 32 30 31 31 29 30 31 32 32 32 32 31
50 50 49 49 49 48 41 43 40 37 34 30 30 30 32 32 32 33 33 33 32 30 32 34 35 36 36 34 33 33 34 33 30 21 30 29 21 23 28 29 30 28 25 25
51 50 50 49 49 49 45 44 37 34 31 28 31 33 32 32 32 32 34 33 31 32 39 37 35 31 30 33 36 36 34 33 31 29 29 18 21 28 28 28 28 28 28 30
51 51 51 49 49 51 48 45 36 33 31 34 34 32 33 34 34 34 34 39 38 38 36 32 27 26 22 29 35 35 35 33 29 27 26 26 27 26 25 25 25 29 32 34
51 51 51 50 48 50 50 48 42 34 30 34 34 33 33 32 31 34 39 41 40 37 33 31 23 20 26 23 27 34 33 32 30 29 25 22 24 26 30 32 26 34 34 35
51 51 51 51 49 50 51 49 45 36 29 36 35 33 33 34 33 32 35 39 38 37 34 31 29 28 29 25 22 23 28 29 28 28 26 27 29 30 31 27 31 35 34 36
50 51 51 51 49 48 51 49 48 40 34 39 41 38 34 36 35 31 36 37 36 36 34 33 32 30 30 29 28 25 24 24 24 26 25 22 28 30 30 35 37 36 37 38
50 50 50 51 50 49 49 48 48 46 37 39 48 48 43 39 37 36 37 34 36 37 33 32 32 31 29 29 27 30 27 27 26 29 28 29 30 34 38 38 39 39 38 37
51 50 50 51 50 49 49 48 47 42 39 40 42 43 44 48 44 42 36 38 38 37 37 34 33 31 31 29 30 32 33 33 33 32 35 33 36 39 41 40 39 38 38 37
51 50 50 51 51 48 48 46 44 42 39 36 37 42 42 45 48 46 44 41 41 39 39 36 34 34 35 34 34 34 35 36 35 34 36 37 38 40 41 40 40 37 37 35
50 49 49 50 50 48 48 48 49 46 41 37 38 42 43 44 45 47 45 43 43 41 39 38 36 37 37 37 36 35 38 37 35 33 36 38 39 41 41 38 36 33 30 29
49 49 49 50 50 49 48 45 47 49 46 41 37 41 41 41 43 44 44 45 44 43 42 40 40 40 37 35 32 37 37 38 39 38 38 38 39 37 35 30 28 28 28 25
49 49 50 50 50 50 47 43 44 48 45 40 37 37 38 39 40 40 41 42 43 43 42 40 39 39 39 36 33 35 37 38 37 38 38 34 33 31 30 29 26 25 25 24
49 49 50 49 49 48 48 48 48 47 44 42 36 35 36 39 37 37 37 38 40 41 41 38 38 38 38 35 37 35 33 35 36 36 37 35 31 28 27 27 26 25 24 21
48 49 48 48 46 45 45 47 48 46 43 38 37 34 32 39 36 35 36 36 36 37 36 36 37 35 34 35 32 33 33 33 33 32 27 27 28 27 27 28 27 25 23 21
48 46 43 39 41 46 47 45 44 42 40 38 37 37 36 39 35 35 36 34 34 31 33 33 32 33 33 30 34 34 33 32 31 26 25 26 25 26 27 27 28 27 25 25
43 39 37 42 46 42 39 36 36 36 34 35 35 35 35 38 35 35 34 32 31 27 27 29 28 27 29 29 29 29 29 28 28 27 27 26 26 26 26 27 27 27 27 26
43 42 43 42 39 37 33 32 32 32 32 33 33 34 36 35 38 34 31 29 28 23 28 27 24 26 29 29 29 29 28 25 22 22 22 23 24 25 26 26 26 26 26 26
40 39 36 35 33 30 29 27 29 30 32 32 33 32 34 34 34 31 28 25 24 26 24 22 23 24 22 23 26 27 28 23 21 22 24 25 25 25 25 25 26 26 26 26
32 32 30 29 28 29 29 26 27 29 33 33 33 30 30 29 28 26 23 22 23 21 19 17 21 20 20 23 25 20 18 19 21 23 25 25 25 25 25 25 25 25 26 26
26 26 26 27 27 30 32 32 33 33 34 33 30 29 28 25 24 23 21 21 19 18 16 18 20 22 23 23 20 19 20 21 23 25 25 25 25 25 25 26 26 26 25 25
28 25 23 27 27 28 31 32 32 34 32 31 28 25 25 24 21 20 18 16 12 14 18 20 22 23 24 24 22 21 22 24 24 25 25 26 25 25 26 27 26 25 25 26
22 24 27 25 25 27 29 32 33 35 31 25 21 20 20 19 19 18 18 14 14 16 17 19 22 24 22 22 22 22 23 24 25 25 26 26 26 25 26 26 26 27 27 27

GFSNW_sfc_30mbdewp_006.txt.gz
Dewpoint
50 50 49 49 50 49 49 44 35 48 51 37 34 30 31 33 33 34 34 34 32 31 32 31 31 31 32 36 34 30 33 30 19 22 31 33 31 28 27 21 20 25 25 21
51 49 49 49 50 49 46 40 40 46 47 35 38 34 33 33 33 33 33 33 34 34 33 31 32 33 37 37 34 32 33 28 16 19 28 30 30 29 30 30 30 26 25 22
50 49 49 49 50 50 46 40 40 40 39 38 33 32 33 32 34 34 34 34 34 33 33 34 34 34 36 37 36 35 35 30 23 10 15 23 21 22 26 27 27 24 24 23
50 49 49 49 50 48 47 42 41 41 38 36 34 34 33 31 31 34 34 32 32 32 31 32 33 34 34 35 37 38 35 26 29 26 25 25 26 25 24 24 27 26 26 23
50 49 49 49 50 47 44 41 40 39 37 37 33 35 32 30 32 31 31 30 32 29 27 24 27 27 29 26 35 34 35 29 32 28 28 26 26 26 25 27 28 28 28 27
50 50 49 48 50 48 45 45 43 40 35 36 36 35 33 32 33 35 34 33 31 30 30 33 37 37 37 35 32 34 35 35 32 27 29 29 25 27 25 26 28 27 25 26
51 50 50 48 50 50 48 45 41 41 36 37 34 34 34 33 34 33 36 34 32 36 40 39 37 35 36 37 38 38 36 36 34 31 30 22 26 27 27 26 27 26 26 29
51 51 51 49 49 50 49 46 41 41 33 38 35 35 35 36 36 36 35 39 40 41 39 36 29 29 26 32 35 36 37 37 32 29 25 24 25 26 27 25 25 29 32 34
51 51 51 49 48 51 51 48 45 42 35 37 35 35 36 36 37 38 41 42 42 41 40 35 21 24 27 24 29 35 35 36 34 29 26 22 25 27 30 31 25 34 37 39
51 51 51 50 48 50 52 51 49 42 37 38 38 36 36 38 38 37 40 41 40 42 38 32 31 30 31 25 24 26 31 32 30 29 28 28 29 31 32 29 32 38 38 38
50 51 51 51 49 49 52 51 50 46 41 40 42 40 38 37 38 38 41 39 41 40 35 35 35 33 33 30 29 28 26 29 29 30 27 26 30 31 33 36 38 39 39 38
50 50 50 51 49 49 50 49 50 49 45 44 49 48 45 44 39 39 42 39 39 41 39 38 36 32 33 35 29 31 27 29 27 30 30 31 33 34 37 39 39 39 39 37
51 50 50 51 50 48 51 50 50 48 45 45 46 45 47 49 45 45 41 42 41 41 42 41 39 32 37 31 33 33 32 33 33 33 33 33 36 37 40 41 40 39 38 34
51 51 50 51 50 48 49 50 48 47 43 36 42 43 44 46 49 48 46 43 44 43 43 38 35 34 37 36 35 34 33 33 32 34 36 36 36 40 41 40 39 38 33 30
50 50 50 50 50 49 52 52 51 50 47 40 43 44 44 45 48 47 46 44 44 44 39 37 37 41 39 39 38 36 35 33 35 35 38 38 39 39 40 40 37 30 27 23
49 49 50 50 50 50 51 48 51 51 50 42 39 44 42 43 45 47 46 46 47 46 43 40 42 42 39 35 34 37 36 37 39 38 39 39 39 38 37 31 28 26 23 22
49 49 50 50 50 53 49 46 48 49 50 43 40 40 40 41 43 43 44 46 46 45 44 41 42 42 40 37 33 36 38 38 38 39 37 36 35 33 31 27 24 25 24 23
49 49 50 49 49 49 49 50 48 49 46 44 38 37 39 40 40 39 40 40 42 44 43 40 40 40 40 35 37 36 33 36 36 36 37 35 32 29 26 25 24 23 19 18
49 48 49 48 48 46 47 48 48 48 46 40 37 34 32 40 37 37 38 40 37 40 37 37 39 36 34 37 36 33 34 35 34 32 30 28 26 24 22 20 17 17 20 21
48 48 45 42 42 47 48 46 45 44 41 40 38 41 37 40 36 35 37 36 35 32 34 34 32 33 33 31 35 33 35 34 31 29 27 25 22 16 16 19 21 22 21 24
44 39 38 42 46 42 40 38 38 36 35 36 35 36 36 38 36 35 35 33 33 30 31 32 31 30 32 33 34 33 32 31 28 24 20 18 19 19 20 22 23 26 27 27
43 42 43 42 39 36 34 33 32 32 32 33 33 35 36 35 38 35 31 31 30 27 30 29 26 28 30 31 30 30 29 24 19 19 17 20 22 24 25 25 25 27 28 29
43 38 34 33 32 30 30 28 29 30 33 33 34 32 34 34 35 31 31 28 28 28 26 24 26 28 30 29 30 30 26 24 24 18 20 24 25 26 27 26 28 29 28 29
35 33 30 31 29 30 31 32 33 32 34 34 34 31 32 31 29 30 28 26 26 24 22 23 25 25 24 23 26 22 19 19 20 23 25 27 27 27 28 27 28 28 28 28
31 32 28 29 30 32 32 33 33 33 35 34 32 31 31 28 26 27 25 23 22 22 21 23 24 20 22 24 22 21 21 22 23 24 26 27 27 27 28 29 30 30 29 28
29 28 28 29 30 30 31 32 32 34 33 33 32 29 28 26 26 24 23 21 18 21 26 27 24 24 25 25 25 22 22 23 24 24 26 27 28 28 28 29 29 29 29 28
26 27 30 29 30 31 32 33 33 34 32 29 27 26 25 24 23 23 21 20 22 25 24 23 24 25 26 25 25 25 25 25 24 26 27 28 29 29 29 28 27 29 30 30

GFSNW_sfc_30mbdewp_009.txt.gz
Dewpoint
50 49 49 50 50 51 50 41 32 49 52 33 38 33 30 31 31 33 32 31 29 28 29 29 29 28 31 33 32 28 29 27 20 18 29 31 29 26 24 22 18 22 24 21
50 49 49 50 50 49 46 35 39 48 50 39 40 35 33 32 31 31 31 32 32 32 31 30 30 32 36 36 32 32 30 28 19 17 27 29 26 26 25 26 28 23 22 22
49 49 49 50 50 49 50 38 38 39 41 38 31 32 30 32 34 33 33 33 33 32 30 32 32 32 35 37 35 34 34 26 22 17 16 18 18 19 19 22 24 24 22 21
50 49 49 49 50 48 49 40 39 40 36 37 33 32 31 30 30 32 32 31 31 31 30 30 30 30 33 33 35 35 32 26 26 25 21 20 20 21 21 19 20 21 24 23
50 49 49 49 50 47 45 36 38 39 40 36 34 34 31 28 30 30 29 29 30 28 30 22 25 24 24 25 33 31 33 30 31 26 23 21 21 21 20 20 22 23 23 23
50 50 49 49 50 50 42 44 45 40 37 36 35 33 31 29 32 35 30 30 27 27 29 33 34 35 34 32 31 32 34 33 30 27 30 29 27 27 21 22 23 26 24 25
51 51 50 48 50 51 48 46 42 44 38 38 34 32 32 31 31 31 32 30 32 37 38 37 36 36 35 35 36 36 38 34 36 32 31 25 26 25 24 23 24 24 24 26
51 51 50 48 50 50 48 45 44 42 40 36 35 33 32 35 34 34 35 39 39 39 37 36 31 30 29 33 33 34 35 37 33 30 25 24 25 26 26 25 26 27 30 34
51 51 51 49 49 51 49 48 48 44 37 40 35 35 36 36 37 38 41 43 43 42 41 36 23 26 25 25 30 34 36 38 34 32 27 22 27 28 30 30 26 35 36 36
51 51 51 50 48 50 52 51 53 44 45 39 37 37 37 37 36 36 40 41 42 42 41 33 34 29 29 24 25 31 33 34 32 30 28 28 27 30 32 27 31 38 38 38
50 51 51 51 48 49 52 51 52 49 44 41 41 40 40 39 36 41 41 39 42 43 37 37 37 36 32 30 26 29 29 32 30 31 28 26 30 30 33 33 36 39 39 39
50 50 50 51 49 48 50 48 49 51 45 45 48 48 47 46 40 38 42 37 40 40 40 41 40 34 37 36 27 27 26 29 29 31 29 29 33 34 38 38 39 39 40 39
51 50 50 51 50 48 51 50 50 48 50 45 44 42 47 45 46 46 41 44 40 41 43 43 41 34 38 32 33 30 30 29 31 32 31 31 34 37 40 41 40 40 39 37
51 51 50 51 50 48 50 50 50 48 46 40 45 44 46 47 48 46 46 42 46 44 44 40 37 35 38 38 33 30 33 32 32 33 33 33 34 40 40 39 40 39 34 29
50 50 50 50 50 49 52 52 51 51 48 42 45 44 45 46 48 47 45 44 44 45 41 38 37 42 40 41 39 35 33 31 34 34 36 38 39 40 39 38 37 32 28 25
50 50 50 50 51 50 52 46 51 51 52 46 41 46 43 44 46 47 45 44 44 44 44 41 42 40 39 37 35 33 34 34 34 35 40 40 41 40 39 33 29 28 25 24
50 49 50 50 51 53 49 46 49 49 52 45 41 43 42 43 45 45 45 47 45 45 44 43 43 41 40 40 34 32 34 36 38 40 40 38 39 36 32 30 26 25 23 18
49 50 49 50 50 49 50 51 49 50 48 48 41 40 41 42 43 43 42 43 44 44 42 42 41 41 42 37 36 34 36 37 37 38 39 40 39 31 27 25 21 17 15 15
49 49 49 49 49 48 50 48 50 51 48 43 39 36 35 41 40 41 40 42 38 42 39 39 41 38 35 37 35 36 35 36 36 37 35 31 27 24 19 15 15 15 16 16
48 48 46 43 44 48 49 49 47 45 45 44 39 42 38 39 38 37 37 38 36 33 36 36 33 34 38 37 37 36 36 36 36 32 29 26 23 16 15 16 18 18 18 22
44 40 39 43 46 44 42 40 40 39 37 38 39 40 37 40 36 35 36 35 34 31 33 33 33 31 34 36 35 35 34 33 31 28 24 17 16 16 17 19 21 23 23 25
43 42 44 43 39 36 37 35 34 34 34 34 34 36 38 37 39 35 32 32 31 29 33 31 27 30 33 34 34 33 31 29 23 18 15 17 17 19 23 24 23 23 28 30
41 36 34 33 32 30 30 28 30 31 32 33 34 32 34 35 36 32 32 29 29 31 28 26 27 29 31 33 31 30 27 23 21 16 16 18 19 23 27 27 29 30 29 29
33 32 30 30 30 30 31 32 32 34 35 35 34 32 32 32 32 31 30 29 29 26 24 25 28 29 30 30 30 29 25 24 20 18 20 23 28 29 31 30 30 29 29 30
33 33 28 29 30 32 32 33 33 34 36 35 35 34 35 31 29 31 28 25 24 25 24 27 27 28 28 27 27 23 22 23 23 20 21 26 28 30 30 31 32 32 32 32
31 32 30 31 31 31 32 32 32 35 35 36 35 31 30 29 30 26 26 26 22 25 28 30 26 24 24 25 24 25 23 23 21 20 22 24 29 29 30 31 31 31 31 31
30 29 33 32 33 32 32 34 34 36 35 31 32 28 28 28 27 26 25 25 27 29 29 25 24 24 24 26 27 28 27 26 23 24 24 26 29 31 31 30 29 29 29 31

GFSNW_sfc_30mbdewp_015.txt.gz
Dewpoint
49 49 49 50 50 51 48 50 37 54 56 30 39 35 35 29 28 32 31 31 26 27 26 28 29 31 31 34 34 27 26 27 22 25 25 26 25 25 26 21 22 27 25 22
49 49 50 50 50 50 52 44 46 53 55 29 33 35 31 29 28 29 29 30 32 31 31 29 34 35 36 36 34 33 29 25 23 25 29 28 20 23 25 30 27 21 19 17
49 49 49 50 50 48 49 49 35 45 46 45 41 35 31 31 33 32 32 31 31 32 31 32 34 35 36 35 30 32 36 26 23 21 20 20 18 20 20 27 26 24 24 24
49 49 49 50 50 47 48 47 39 35 30 31 37 37 32 32 31 32 33 31 31 31 29 31 34 35 34 34 30 33 32 29 28 26 24 23 22 22 22 21 21 21 21 26
49 50 49 50 50 47 47 46 44 35 30 30 36 37 31 32 32 32 31 29 30 32 31 32 32 31 31 32 32 33 36 33 29 25 28 26 25 27 26 23 23 22 24 25
50 50 48 49 50 51 48 49 47 46 42 32 36 35 32 31 33 33 34 32 35 34 35 37 37 35 34 35 32 35 36 32 28 21 28 31 26 26 25 24 25 24 22 29
51 50 48 48 50 52 55 52 52 42 35 39 36 36 34 34 32 31 37 37 35 37 37 35 35 34 35 35 35 37 32 35 32 21 27 11 28 28 27 27 27 28 34 35
51 50 49 48 49 51 52 52 53 43 35 42 37 33 34 35 40 39 38 38 37 39 40 29 21 24 26 31 33 35 37 34 25 21 24 23 27 27 27 27 29 36 36 36
50 50 49 48 48 50 53 52 55 48 39 39 41 34 35 38 39 40 41 43 44 44 39 28 22 24 24 28 30 36 39 35 30 28 19 9 27 30 31 31 26 38 38 37
50 50 50 48 48 48 55 52 55 53 42 43 43 38 36 41 41 40 42 42 41 44 33 30 23 30 31 28 29 30 33 33 28 29 25 26 32 31 31 25 25 39 38 38
50 50 50 50 48 48 54 51 53 53 44 44 46 47 42 41 42 38 42 39 40 41 32 29 32 33 30 30 31 29 24 26 28 30 26 21 32 30 27 32 39 39 38 39
50 50 50 50 48 49 52 50 52 55 49 47 50 48 47 45 46 44 42 33 43 43 37 39 40 33 37 33 26 32 26 29 29 29 26 30 33 32 37 39 39 40 39 40
50 50 50 51 50 50 51 52 52 54 49 46 45 45 48 48 48 49 40 44 44 44 46 41 39 28 38 29 32 29 30 34 32 33 34 34 33 39 41 41 40 40 40 40
51 51 50 50 51 50 52 52 53 51 47 38 45 46 47 47 48 47 48 46 49 48 43 39 38 29 39 33 28 30 29 32 30 32 34 35 40 40 40 39 39 39 37 37
49 49 49 49 50 50 53 53 52 52 49 37 46 46 46 46 47 46 48 47 47 45 41 37 33 37 39 40 39 37 36 32 30 29 36 36 40 40 40 40 40 38 35 26
49 49 49 49 50 51 54 50 53 50 54 42 34 47 44 45 46 46 45 46 46 46 40 38 42 44 36 37 35 37 37 37 35 35 41 41 41 39 40 39 39 34 26 25
48 49 49 50 50 51 49 46 49 49 52 40 39 42 44 43 46 47 47 48 47 46 44 42 41 41 41 37 35 37 36 34 40 42 40 38 39 38 37 34 29 27 23 19
48 48 50 50 50 49 50 51 50 51 49 46 39 39 40 44 44 42 44 43 44 45 44 44 41 41 39 36 39 39 38 37 40 40 40 39 39 38 34 29 21 17 19 18
49 50 50 51 49 48 50 48 50 53 48 41 39 35 31 43 41 41 40 42 39 42 40 41 41 38 35 37 38 38 36 37 39 39 39 39 38 36 25 18 19 20 20 21
49 49 47 44 45 47 49 48 46 44 47 43 39 41 38 40 39 38 38 38 37 35 36 39 36 35 39 38 38 38 38 38 39 37 37 37 29 19 19 20 22 23 23 23
45 42 42 43 46 46 44 40 40 39 38 41 40 40 38 41 36 36 38 34 35 30 32 34 31 31 33 35 38 37 39 38 39 33 27 23 20 20 22 24 25 25 25 24
43 42 43 42 38 37 39 37 37 37 35 36 38 38 39 40 41 36 35 33 33 29 36 32 27 31 36 36 36 36 36 29 22 21 21 22 24 24 23 23 23 26 28 27
40 37 35 36 32 31 31 30 31 32 33 34 35 35 35 37 37 34 34 32 30 35 31 28 30 32 35 35 26 23 23 22 22 22 22 21 20 20 21 21 25 27 28 28
35 33 30 31 29 30 29 30 31 33 34 34 34 32 34 33 34 32 30 31 31 27 26 26 34 35 36 34 25 22 20 19 18 19 22 22 22 24 26 28 28 28 28 28
33 33 28 29 31 31 32 32 32 33 36 35 33 33 33 31 29 31 29 26 26 28 27 30 33 32 30 28 25 22 19 19 22 24 23 22 23 24 25 27 29 30 30 31
33 31 29 31 31 31 32 32 31 34 33 35 34 31 31 28 29 28 28 27 25 29 32 31 29 28 28 27 25 25 26 25 25 26 26 25 25 24 26 29 30 30 30 30
31 30 33 33 32 31 32 33 33 37 34 30 32 28 26 30 28 27 30 28 30 33 28 28 27 26 27 27 27 28 28 27 28 29 26 25 26 27 27 27 28 29 30 30

GFSNW_sfc_30mbdewp_021.txt.gz
Dewpoint
49 49 50 50 50 51 48 43 24 51 39 23 38 33 37 33 28 31 31 32 29 25 30 31 31 30 31 36 35 24 29 25 23 23 27 28 26 25 23 15 18 24 21 18
49 48 50 50 50 48 47 39 48 52 36 20 30 33 34 30 28 29 30 30 32 33 33 30 34 34 35 30 32 29 29 24 21 24 26 25 25 26 29 26 25 21 18 17
48 48 50 50 50 51 48 41 38 42 44 36 26 30 31 30 33 32 32 31 33 31 33 36 33 33 35 28 29 34 33 28 20 13 20 23 18 21 28 25 21 20 19 19
48 49 50 50 50 50 48 46 33 35 32 35 40 35 32 31 29 32 32 30 31 31 32 33 34 35 32 29 31 33 30 24 27 26 26 24 22 21 24 25 24 20 21 23
48 49 50 50 49 49 44 44 37 37 27 30 36 37 34 31 32 32 31 29 33 32 31 31 32 30 27 19 32 34 35 27 23 25 29 28 22 21 23 23 23 25 24 26
49 49 50 50 48 47 42 47 49 33 37 31 34 36 35 32 33 36 35 34 33 32 34 36 37 36 35 33 32 35 30 28 19 9 27 25 15 21 26 25 25 24 23 27
49 48 49 50 48 49 50 52 47 38 35 26 30 37 35 34 33 33 37 36 33 35 36 33 32 33 36 37 37 35 31 27 23 14 16 5 14 27 27 25 27 31 31 33
48 48 48 49 49 50 51 52 46 37 36 36 35 36 38 39 40 39 39 40 39 38 27 26 26 25 28 32 38 35 33 26 20 13 13 14 16 26 27 26 24 34 32 34
49 48 48 49 51 52 51 53 49 39 37 38 40 38 38 35 36 38 40 44 42 36 27 18 13 12 15 25 32 36 31 25 17 23 9 1 7 30 31 28 24 35 35 35
50 48 49 50 52 52 47 51 53 44 40 43 42 37 35 39 37 36 40 40 39 34 26 19 18 17 24 18 22 30 33 31 25 20 15 17 21 31 30 23 14 37 37 36
50 49 49 50 51 52 48 50 53 44 42 45 47 46 41 41 39 34 39 36 37 33 28 22 24 27 29 28 29 29 26 27 27 25 21 13 27 31 27 27 31 37 38 38
50 48 48 50 51 53 49 49 53 50 43 45 48 48 48 47 40 41 40 34 37 35 30 29 32 27 33 29 22 32 25 23 20 24 19 26 31 31 32 33 34 39 38 39
48 48 48 49 51 52 50 51 52 44 42 43 43 44 47 48 48 46 37 40 41 39 38 36 34 24 34 27 29 30 31 31 26 28 26 29 30 32 37 38 38 39 39 39
48 48 49 50 51 51 51 50 51 43 38 32 42 47 45 47 49 48 44 45 45 42 38 34 32 24 34 28 28 31 30 33 30 31 32 34 37 37 38 40 40 39 40 39
48 49 49 50 51 51 50 49 49 50 36 35 42 45 45 45 48 48 47 45 43 41 38 36 34 32 34 35 34 31 33 28 27 23 28 31 31 38 40 40 39 38 38 35
49 49 49 49 52 53 45 38 48 50 47 37 36 44 44 44 47 47 46 46 44 41 39 37 36 38 35 33 34 34 36 36 32 30 34 34 38 40 40 39 39 39 29 22
49 49 49 48 48 48 43 36 47 49 46 36 38 39 42 44 45 43 45 45 45 42 40 37 36 40 39 35 31 32 34 36 36 39 40 39 39 39 41 40 35 25 21 20
49 50 50 50 49 49 47 49 48 48 42 38 32 35 38 43 42 42 41 42 42 42 41 40 41 39 37 36 36 37 38 38 38 40 40 39 40 40 37 25 21 21 23 23
49 49 48 46 46 46 48 47 48 47 41 36 35 28 29 41 39 39 39 39 40 39 40 40 40 36 36 37 37 37 38 39 39 40 39 39 37 27 23 25 28 29 23 22
47 45 41 40 44 46 46 43 41 41 42 40 37 37 36 40 37 37 37 36 37 35 36 39 36 36 38 35 36 37 38 38 40 38 38 33 28 29 32 33 32 26 25 24
44 42 41 44 44 43 40 37 36 39 37 39 38 37 37 39 37 38 35 35 35 31 31 34 31 30 32 33 34 34 35 36 36 36 33 33 33 33 31 25 26 25 24 23
43 42 42 39 38 38 36 34 36 36 35 36 37 37 39 39 38 36 36 33 33 29 34 32 28 30 27 28 31 31 33 33 33 34 33 32 28 26 25 20 18 20 24 26
41 38 36 37 35 35 33 31 32 32 33 34 35 36 35 37 37 34 34 31 30 34 30 29 30 33 31 32 35 35 35 34 33 32 31 26 24 23 22 22 23 25 25 26
36 35 32 32 30 29 30 31 31 32 33 33 34 33 34 33 34 32 30 31 31 28 26 25 31 31 32 28 25 24 24 27 31 26 24 22 23 23 24 25 26 26 25 26
32 30 28 27 30 31 31 32 32 32 34 34 33 32 33 31 30 30 29 27 25 26 24 29 31 31 31 26 28 30 31 30 26 23 24 24 24 24 24 25 26 27 27 27
31 31 28 30 29 30 31 31 31 34 33 34 33 31 29 28 29 27 26 25 22 26 30 33 32 33 33 33 34 35 34 28 27 27 28 25 24 24 25 26 26 26 26 26
29 30 33 32 31 31 32 33 33 36 33 29 30 26 26 29 27 26 29 25 29 32 33 34 34 32 30 29 28 28 28 26 23 23 24 25 26 26 26 24 25 27 28 28

GFSNW_sfc_30mbdewp_024.txt.gz
Dewpoint
50 50 49 49 50 51 51 37 26 50 37 25 34 28 35 37 28 31 32 30 27 24 29 30 29 28 30 35 35 26 29 25 23 21 27 30 26 25 22 12 15 23 20 17
50 49 49 50 50 51 47 40 48 51 33 21 28 32 33 32 28 30 30 31 32 34 32 28 33 33 34 29 31 27 27 25 21 21 22 24 25 28 27 24 25 21 18 13
49 48 49 50 50 51 46 42 39 42 38 33 25 26 31 30 33 32 32 32 33 33 34 35 33 33 33 29 31 35 30 26 20 10 16 22 19 24 27 23 19 19 19 18
48 48 49 50 50 50 49 40 37 39 35 35 27 29 32 30 29 32 32 31 31 31 31 33 32 34 31 29 33 34 27 22 25 26 27 24 20 20 25 23 22 18 19 21
48 49 50 50 50 50 46 44 34 32 33 39 33 34 33 30 31 32 30 29 34 32 30 29 31 31 26 15 33 33 33 24 23 25 29 27 23 21 22 24 24 25 25 23
48 49 50 50 50 48 42 47 44 32 34 37 32 33 34 32 33 36 35 32 32 31 34 36 36 35 33 31 31 32 28 26 19 12 25 22 14 19 22 23 25 22 18 22
49 49 49 50 49 48 46 49 45 35 26 32 36 35 36 34 33 32 36 35 32 36 36 33 32 34 37 37 36 34 28 23 17 12 15 5 12 26 27 24 25 26 28 28
48 48 49 50 49 51 50 52 45 37 27 29 32 37 37 39 40 38 39 40 39 36 27 29 28 26 28 31 35 31 30 23 18 11 13 12 11 19 25 26 22 30 29 32
48 48 49 49 48 49 52 52 45 41 28 31 37 38 38 35 36 37 41 42 39 33 23 17 22 21 20 21 31 35 28 24 16 19 8 2 7 25 30 27 22 28 33 33
48 49 50 50 48 50 51 52 50 43 40 43 40 36 36 38 36 36 39 38 38 33 23 18 16 14 22 15 18 28 32 30 22 17 14 15 18 30 29 19 13 32 34 34
49 49 50 52 51 50 51 51 52 44 43 46 47 45 39 39 38 33 39 36 36 31 27 22 21 23 25 25 26 29 24 24 24 23 21 13 25 31 26 26 28 33 35 35
48 49 49 51 51 50 51 49 53 50 44 45 48 48 48 46 39 40 40 34 36 34 30 26 28 26 31 28 19 31 23 25 21 23 18 24 28 31 32 32 30 35 36 37
48 49 49 51 52 50 51 50 49 44 42 43 44 45 47 47 47 44 36 37 39 36 35 31 30 21 32 23 26 29 31 30 25 26 24 27 30 30 32 35 34 37 39 38
48 49 49 50 51 51 50 49 49 39 37 37 42 46 45 47 49 48 43 42 41 39 37 32 29 21 32 27 28 29 30 31 29 29 29 31 32 35 34 35 39 38 40 40
48 49 50 50 50 50 50 49 50 48 33 35 41 44 44 46 48 46 45 42 40 39 36 33 29 30 32 34 33 29 32 27 25 22 25 28 28 32 39 39 39 40 40 38
48 48 49 52 52 47 38 36 47 49 44 38 36 43 43 45 46 46 46 45 42 40 38 37 35 37 34 33 32 32 34 34 32 28 33 33 34 38 39 39 39 39 35 29
49 48 48 47 48 47 38 35 46 47 44 35 37 38 40 43 44 43 44 45 43 41 39 36 36 39 36 33 31 32 33 34 36 37 39 37 39 37 40 40 34 25 22 22
49 48 49 49 49 48 46 48 47 47 39 35 30 34 39 42 42 41 41 41 42 41 39 38 38 38 36 35 37 38 38 39 39 39 40 39 39 39 30 24 22 25 30 31
48 46 46 45 45 45 47 47 46 45 39 33 33 26 28 41 38 38 39 39 40 39 39 39 39 36 35 35 34 36 36 37 38 40 39 37 30 24 28 31 33 33 32 28
46 43 39 39 44 45 45 41 39 39 41 40 35 35 35 40 38 37 37 37 36 34 35 39 37 36 35 29 30 33 36 38 39 38 32 30 33 33 33 33 33 32 30 30
43 41 42 44 43 41 38 36 36 38 36 38 37 37 36 39 37 37 34 34 34 31 31 34 32 31 29 31 32 33 34 34 34 34 34 34 33 32 31 32 33 32 27 23
43 43 41 39 37 37 34 33 36 35 34 36 37 37 38 38 37 36 35 33 32 29 33 32 28 29 31 33 34 34 34 33 33 33 33 33 33 32 30 26 20 19 24 26
40 37 37 36 35 33 32 30 32 32 34 34 35 36 35 37 36 35 34 32 30 33 30 28 29 31 31 32 34 32 33 34 33 31 30 28 25 24 24 24 25 27 26 27
36 36 34 32 31 31 31 32 32 32 33 34 34 33 34 33 34 32 31 31 31 27 25 24 28 30 30 27 26 30 31 31 28 25 23 23 23 23 25 25 25 25 25 27
33 32 28 27 29 31 31 32 32 32 34 34 34 33 34 32 30 30 29 27 24 24 23 28 30 31 30 31 33 33 34 32 27 24 26 25 24 23 24 25 26 26 26 26
31 31 28 30 30 29 31 32 31 34 33 34 34 31 29 28 29 27 26 24 22 25 29 32 31 32 33 33 33 33 34 30 27 28 26 24 24 24 25 26 25 25 25 26
29 30 32 32 32 31 31 33 33 35 33 30 30 27 26 29 26 25 28 25 28 31 33 33 33 33 32 33 31 29 28 26 24 25 26 26 27 26 26 27 28 28 28 27

GFSNW_sfc_30mbdewp_027.txt.gz
Dewpoint
49 49 50 50 48 51 50 40 31 50 39 28 32 25 29 38 29 32 31 27 26 25 28 28 28 26 30 35 34 27 28 25 23 22 27 30 26 24 24 14 15 23 20 14
49 49 50 49 49 51 48 35 48 50 34 24 27 31 32 33 28 30 30 31 30 34 31 27 32 32 33 30 30 28 27 25 21 21 22 25 25 27 25 24 26 20 17 9
49 49 49 48 50 50 46 45 40 43 35 32 25 30 27 29 33 32 32 33 34 34 33 35 32 32 33 30 32 34 29 25 20 14 15 23 21 27 25 22 18 17 20 17
49 49 48 50 50 50 47 41 38 41 32 28 25 26 31 28 30 32 32 32 31 32 31 32 32 33 28 30 35 34 27 21 24 25 26 25 20 22 26 23 21 15 15 19
49 48 48 50 50 51 47 38 35 34 35 33 26 31 31 29 32 31 29 30 33 32 30 29 30 31 25 18 34 33 31 24 25 24 28 27 23 22 22 26 25 23 23 22
48 48 48 50 50 49 45 48 40 31 35 36 25 29 33 31 33 36 34 32 32 31 34 36 36 34 33 30 31 31 28 25 21 14 24 21 15 19 22 23 24 24 20 21
48 48 50 50 50 48 46 47 40 29 30 35 27 31 35 32 32 32 36 34 32 36 38 35 34 35 36 35 33 32 25 21 18 14 16 3 11 26 25 23 23 24 24 26
48 50 49 50 50 50 50 50 42 32 27 32 34 36 37 38 39 38 38 40 38 37 30 30 29 28 30 32 33 29 27 22 17 11 14 12 9 15 21 24 15 26 26 28
49 49 49 50 49 50 51 51 44 37 28 29 36 38 37 35 36 37 40 40 37 30 23 23 25 24 23 21 30 34 27 23 18 18 7 2 7 18 30 28 20 26 29 31
48 48 49 49 49 51 51 51 46 42 35 42 40 37 36 38 36 37 37 35 36 32 22 21 20 19 22 17 16 26 31 29 22 18 15 16 19 24 29 16 12 26 33 33
49 49 49 49 49 50 52 51 51 43 43 46 46 43 38 38 38 34 38 36 35 30 27 24 22 22 22 22 24 27 22 23 23 22 19 12 24 30 23 24 29 29 35 34
48 49 50 48 48 48 52 48 52 48 45 45 47 47 47 46 39 40 40 35 36 34 30 27 27 26 29 26 20 31 22 26 22 23 18 24 26 31 32 32 30 31 35 36
48 50 51 49 48 49 51 50 48 45 43 43 44 45 47 47 47 44 37 36 39 34 35 29 28 19 30 22 25 28 30 30 26 25 24 26 28 29 30 32 32 34 36 37
48 50 51 50 50 51 48 47 48 41 40 39 42 45 45 46 49 47 43 40 40 38 36 30 27 21 32 26 27 27 29 31 29 28 28 29 29 32 33 34 35 36 38 39
49 50 50 50 50 50 49 50 49 47 33 37 41 43 44 46 46 44 42 40 38 37 33 30 27 30 31 33 32 27 32 28 25 23 26 27 28 31 36 37 38 39 40 38
50 51 51 50 49 47 43 39 47 47 44 39 38 42 42 44 45 45 45 44 41 40 37 36 35 37 33 31 29 31 33 34 33 30 34 33 34 36 39 39 40 40 36 31
48 48 48 48 48 47 35 34 45 46 43 35 37 39 39 42 43 42 43 44 42 41 38 36 36 38 35 33 31 36 37 38 39 38 38 37 38 38 38 31 27 27 28 31
48 48 48 48 48 47 46 47 46 45 36 34 31 34 39 41 41 40 41 41 41 40 39 37 36 37 37 35 35 35 36 37 39 39 40 39 31 26 25 28 32 33 32 33
45 46 46 45 45 44 46 46 45 44 36 30 29 25 28 41 38 38 39 39 39 39 38 38 38 35 32 29 31 32 34 35 37 32 29 31 32 33 33 33 31 31 31 32
45 43 39 40 45 44 44 39 38 39 39 39 33 35 34 39 38 36 37 37 36 33 35 38 37 32 29 32 33 34 34 34 36 34 32 32 31 32 32 32 33 33 32 32
42 41 42 44 42 40 36 35 34 36 35 37 36 37 35 38 37 36 35 34 34 31 31 33 32 29 28 34 33 33 33 34 34 34 33 33 33 32 32 33 33 33 31 29
42 43 41 39 37 35 34 33 35 34 33 35 37 36 38 37 37 35 35 32 32 28 34 32 28 28 33 34 34 34 35 34 34 34 34 34 33 33 32 31 26 24 27 29
39 38 36 35 34 31 30 29 32 32 34 35 35 35 35 36 36 34 34 32 30 33 30 28 28 30 31 32 33 33 34 33 32 31 30 29 26 26 26 27 28 28 27 27
35 35 32 31 32 31 31 32 33 32 33 34 35 33 35 34 34 33 32 30 32 27 25 24 28 29 30 30 33 33 31 29 25 24 23 24 24 24 25 25 26 25 26 26
33 31 28 27 29 30 31 32 32 32 34 34 34 34 34 32 31 30 29 27 24 24 22 27 30 29 29 31 31 31 32 30 26 27 27 24 24 24 25 26 26 26 26 26
32 31 28 30 29 29 31 32 31 34 34 34 33 31 30 28 29 27 26 24 22 24 29 30 31 30 31 32 33 33 33 29 28 26 25 25 26 26 26 27 27 26 26 25
30 29 32 32 31 30 31 32 32 35 33 30 30 27 26 28 26 25 28 25 26 30 31 32 33 32 33 33 33 30 27 25 26 27 27 27 27 26 26 25 25 24 25 25

GFSNW_sfc_30mbdewp_030.txt.gz
Dewpoint
48 52 51 50 50 51 50 43 36 54 51 40 37 30 27 35 30 33 29 27 26 23 26 26 20 23 27 34 31 27 28 27 25 24 27 29 27 24 21 14 16 24 22 9
48 52 50 50 50 50 47 39 44 50 43 34 34 32 29 36 29 30 31 28 30 32 30 27 30 31 34 33 31 30 29 26 23 23 24 26 25 26 23 25 26 20 21 6
48 50 50 49 50 50 46 39 39 46 41 34 30 28 27 30 34 33 34 34 35 34 32 35 33 33 33 33 32 31 29 28 24 20 19 22 22 25 23 19 19 14 16 6
46 50 49 49 50 50 48 42 36 40 36 32 30 28 26 28 30 33 34 33 32 31 32 32 33 33 29 33 35 35 31 25 26 24 25 24 21 22 24 20 19 17 8 14
46 50 49 49 50 50 47 39 38 39 34 30 28 27 28 27 31 32 30 31 33 34 32 29 31 32 29 28 34 33 32 27 28 26 27 25 23 22 21 23 21 22 18 17
47 49 49 49 49 50 44 49 41 34 37 30 27 27 26 26 34 37 34 34 34 34 35 37 37 35 32 30 33 33 32 29 25 20 24 23 20 23 21 20 23 22 18 18
48 49 48 49 49 50 44 48 39 37 33 32 25 27 30 31 34 34 37 36 34 39 39 36 35 35 34 32 33 32 31 27 27 23 19 10 13 22 22 21 21 20 21 19
49 48 48 49 50 49 51 50 42 38 35 33 29 30 32 38 39 39 38 40 39 39 36 34 31 32 32 34 32 30 29 27 22 23 17 13 5 16 18 22 15 20 20 21
48 47 49 49 50 49 53 52 47 42 33 34 30 33 38 36 38 39 40 39 39 34 35 33 30 28 27 27 32 33 28 29 27 22 17 12 16 23 29 28 17 21 27 28
48 49 49 49 50 49 54 53 51 43 40 38 40 33 37 40 39 39 38 37 38 36 34 30 32 29 25 22 20 28 32 32 28 26 25 22 21 21 30 18 17 27 31 31
49 49 49 49 49 50 54 53 53 48 46 44 46 42 40 40 40 38 39 36 38 36 32 34 32 31 27 25 24 28 26 29 28 28 24 19 24 30 24 28 31 31 31 34
48 48 49 49 49 50 53 51 52 51 47 47 49 48 48 47 43 42 40 39 38 37 38 35 36 31 30 32 27 30 26 28 28 27 24 27 28 30 32 34 33 33 34 33
48 48 49 49 49 51 52 52 51 49 48 46 46 46 48 49 49 48 40 41 41 38 41 38 38 25 35 28 30 31 30 31 29 27 24 27 29 30 30 30 31 32 33 34
48 48 49 48 49 50 51 50 49 49 47 43 45 47 47 48 50 48 46 44 42 40 40 38 32 29 35 33 31 30 31 31 30 30 28 28 29 31 32 34 36 37 37 38
48 49 48 48 49 50 51 50 50 48 43 43 44 46 46 47 46 44 44 42 40 41 38 32 34 36 36 36 35 33 31 31 31 29 31 31 31 34 37 38 38 40 40 39
49 49 49 49 49 50 47 43 49 47 48 46 42 44 44 46 46 46 45 44 43 42 42 39 37 37 38 34 32 36 37 38 38 36 38 38 39 40 40 38 36 36 35 33
49 49 48 45 46 48 43 42 47 46 47 44 40 42 42 44 45 44 45 46 45 44 42 38 40 39 38 37 35 35 36 36 39 39 40 39 36 34 32 33 34 35 35 34
48 48 48 48 47 48 48 47 46 45 40 42 36 38 43 44 43 41 43 43 45 42 40 39 38 39 39 36 33 35 36 37 38 34 37 34 32 33 33 33 34 33 32 33
47 47 47 49 48 48 48 46 44 47 42 33 32 33 35 42 39 40 41 43 39 40 39 39 40 36 33 30 32 34 35 36 36 35 35 34 33 32 33 33 33 32 32 34
45 46 42 42 47 44 45 43 41 41 42 40 34 38 35 40 39 37 39 40 37 36 37 39 37 29 31 33 34 34 35 35 35 34 31 31 31 31 32 33 33 33 32 31
45 44 43 46 43 43 40 36 35 38 35 38 37 39 37 40 38 36 37 36 36 32 34 35 33 28 30 34 33 34 35 35 35 34 33 32 33 33 33 33 32 32 32 30
45 45 44 42 39 38 33 33 36 35 34 36 37 37 39 37 39 36 36 33 33 30 36 33 29 29 32 33 34 34 34 34 34 34 32 32 31 31 30 28 24 26 28 29
44 40 36 37 35 30 29 28 32 33 35 35 36 35 37 37 39 35 34 32 31 34 31 30 28 31 32 33 34 35 33 31 29 28 27 26 26 27 28 28 28 29 28 28
37 36 32 32 32 31 32 33 33 32 33 35 36 34 36 35 35 34 33 30 32 29 27 27 29 30 31 33 34 30 28 27 26 25 26 26 26 26 28 28 28 29 28 29
33 33 28 28 29 31 31 32 32 33 34 35 36 35 36 33 32 32 31 28 27 28 27 29 31 31 32 32 31 28 30 29 29 28 26 26 27 28 28 29 27 27 27 26
33 31 29 31 30 30 32 32 31 34 34 35 35 33 32 30 31 29 29 28 26 27 30 31 32 32 32 33 33 33 32 29 26 26 27 28 28 28 28 28 24 24 24 24
31 29 32 32 31 30 31 32 31 34 33 31 32 30 28 30 28 27 30 28 29 31 32 32 32 32 32 34 34 30 28 27 28 28 28 27 27 25 22 19 17 17 19 19

GFSNW_sfc_30mbdewp_033.txt.gz
Dewpoint
45 49 50 51 52 50 49 46 38 51 54 39 42 35 30 27 25 32 25 25 20 18 19 19 16 18 21 28 28 24 26 21 21 23 26 27 25 22 22 17 14 18 23 11
44 47 47 51 51 50 45 43 44 55 49 37 39 34 28 27 27 29 26 22 22 21 21 20 18 17 35 34 31 24 28 19 18 22 24 25 20 20 21 19 23 16 18 12
43 45 47 50 51 50 47 41 39 48 49 39 36 32 27 27 29 28 26 21 29 26 23 26 24 25 33 34 32 31 30 22 21 19 19 21 22 19 20 20 18 15 13 11
45 46 47 49 50 49 48 42 35 40 38 39 36 31 28 25 27 30 31 28 28 27 27 28 28 29 32 33 35 31 31 24 22 22 24 22 20 18 20 18 17 14 15 7
45 45 46 49 50 49 47 39 33 37 37 37 34 30 26 23 28 30 29 26 25 25 25 28 27 31 29 29 34 32 31 25 28 28 26 24 22 21 18 17 16 14 13 13
46 45 46 48 50 49 45 46 42 37 38 37 32 31 26 24 30 36 30 27 27 28 33 37 36 35 32 31 33 33 32 28 26 18 23 23 21 24 21 18 17 18 17 17
46 44 45 48 50 49 44 46 41 38 37 36 30 28 27 26 32 31 34 33 31 39 38 36 35 34 32 32 34 34 33 30 31 23 22 12 11 18 17 19 18 16 15 15
44 43 43 48 49 49 49 52 44 37 37 33 28 26 27 27 35 34 36 39 39 39 36 33 32 32 33 31 29 27 29 28 27 26 16 13 11 10 15 16 13 17 17 17
46 46 46 49 49 49 51 55 50 39 38 32 27 26 26 31 36 40 40 41 40 38 38 37 29 26 24 28 32 29 28 29 24 24 23 18 22 21 24 24 16 21 20 20
46 46 48 48 48 49 50 54 54 37 30 29 29 26 28 31 32 34 40 40 39 39 40 35 34 29 27 25 27 32 33 33 29 27 27 25 22 22 27 18 24 27 26 25
47 48 48 48 49 50 50 54 54 44 40 41 42 35 31 35 33 40 39 38 39 37 35 38 35 36 29 28 25 30 28 32 30 32 31 21 23 26 22 30 26 26 29 28
48 48 48 48 49 49 50 52 52 51 44 46 49 49 48 46 43 37 40 35 38 38 35 41 42 36 34 34 26 29 27 29 29 27 26 27 25 24 27 29 30 30 30 31
48 48 48 49 49 49 51 51 52 48 48 46 45 45 48 49 50 50 39 43 40 40 44 42 42 34 38 32 32 31 29 31 28 27 22 23 25 27 29 30 31 33 34 34
48 48 49 49 49 50 51 51 52 47 49 45 46 48 47 49 49 48 48 45 46 43 43 46 37 37 37 37 33 29 31 30 27 29 27 27 27 32 35 37 38 38 38 39
48 48 49 49 49 50 51 52 52 51 43 44 45 47 47 47 46 45 45 44 42 41 42 35 40 39 39 39 37 34 31 31 32 30 33 35 34 38 40 39 38 38 39 38
48 48 49 49 50 50 51 46 50 49 50 47 44 47 46 47 46 44 44 44 42 41 45 44 38 39 40 38 33 36 36 37 38 37 39 39 39 35 35 35 36 35 34 33
48 48 48 49 50 52 45 41 49 48 50 47 44 44 45 46 45 46 45 46 45 44 44 42 42 39 40 40 35 36 36 37 39 38 39 39 34 34 36 35 35 35 35 35
48 48 48 48 48 48 47 46 45 47 44 44 41 42 45 46 46 44 45 47 46 44 42 42 41 40 42 39 35 36 36 38 36 35 35 35 35 34 34 35 34 32 31 32
48 48 49 49 50 47 47 44 46 49 46 39 40 40 39 43 41 43 44 45 40 42 40 41 41 38 36 34 34 35 36 36 36 36 34 34 34 34 33 32 32 32 34 33
48 47 43 43 48 44 46 43 46 44 43 41 38 41 39 41 42 39 40 41 40 36 39 41 39 33 33 34 34 35 35 36 35 33 32 33 33 32 32 32 32 31 28 28
48 47 45 48 44 46 43 39 39 39 36 38 38 39 38 41 38 36 40 37 38 33 35 36 34 31 32 34 34 35 35 36 36 34 32 32 32 33 32 30 30 30 28 27
47 47 46 45 42 41 33 34 37 38 35 37 37 38 38 39 41 37 38 34 35 31 36 34 32 31 33 34 34 34 33 32 32 32 30 30 29 28 27 24 26 28 28 31
46 43 38 39 37 31 30 27 33 33 36 36 38 36 39 39 39 36 35 32 33 35 32 30 30 31 33 34 33 32 32 31 29 27 26 25 25 28 27 27 29 30 27 29
39 37 33 34 33 32 31 33 34 33 35 38 38 36 37 38 36 36 32 31 34 29 28 29 29 32 33 35 33 31 28 28 25 25 25 26 26 28 30 30 31 30 27 27
34 35 30 29 30 31 31 33 33 33 35 37 37 37 37 34 33 34 32 29 29 30 30 31 32 32 33 34 30 27 26 29 29 27 27 30 30 28 28 28 26 26 26 25
33 32 30 31 31 30 32 32 31 34 35 37 38 34 33 31 32 31 30 30 28 29 32 33 33 32 34 33 29 30 30 29 26 27 29 30 29 29 28 25 21 23 23 22
32 30 32 32 31 30 31 32 31 34 34 32 34 31 30 32 30 29 31 30 32 33 32 32 34 33 34 34 33 32 29 27 28 28 28 28 27 24 21 17 16 15 16 17